This is the latest recevied weather packets stored in our database for station/object SQ9CIE-4. If no packets are shown the sender has not sent any weather packets the latest 1 day(s).
| Time | Temp. | Humidity | Pressure | Rain* | Wind** | Luminosity | Snow |
|---|---|---|---|---|---|---|---|
| 1778060759 | 22.22° C | 50% | 1005.7 hPa | 0 mm | - | 692 W/m² | - |
| 1778060459 | 21.11° C | 52% | 1005.7 hPa | 0 mm | - | 687 W/m² | - |
| 1778060159 | 21.11° C | 51% | 1005.7 hPa | 0 mm | - | 667 W/m² | - |
| 1778059859 | 21.11° C | 53% | 1005.7 hPa | 0 mm | - | 671 W/m² | - |
| 1778059559 | 21.11° C | 53% | 1005.8 hPa | 0 mm | - | 681 W/m² | - |
| 1778059259 | 20° C | 54% | 1005.9 hPa | 0 mm | - | 654 W/m² | - |
| 1778058959 | 20° C | 53% | 1005.8 hPa | 0 mm | - | 652 W/m² | - |
| 1778058659 | 20° C | 53% | 1005.8 hPa | 0 mm | - | 645 W/m² | - |
| 1778058359 | 20° C | 55% | 1005.9 hPa | 0 mm | - | 667 W/m² | - |
| 1778058059 | 20° C | 54% | 1005.7 hPa | 0 mm | - | 621 W/m² | - |
| 1778057759 | 20° C | 55% | 1005.7 hPa | 0 mm | - | 631 W/m² | - |
| 1778057459 | 20° C | 55% | 1005.7 hPa | 0 mm | - | 630 W/m² | - |
| 1778057159 | 20° C | 57% | 1005.8 hPa | 0 mm | - | 619 W/m² | - |
| 1778056559 | 18.89° C | 56% | 1005.7 hPa | 0 mm | - | 596 W/m² | - |
| 1778055359 | 18.89° C | 58% | 1006.1 hPa | 0 mm | - | 570 W/m² | - |
| 1778054759 | 17.78° C | 58% | 1005.9 hPa | 0 mm | - | 542 W/m² | - |
| 1778054459 | 17.78° C | 58% | 1005.6 hPa | 0 mm | - | 539 W/m² | - |
| 1778054159 | 17.78° C | 59% | 1006.1 hPa | 0 mm | - | 518 W/m² | - |
| 1778053859 | 17.78° C | 60% | 1006 hPa | 0 mm | - | 497 W/m² | - |
| 1778053559 | 17.78° C | 59% | 1005.9 hPa | 0 mm | - | 517 W/m² | - |
| 1778052959 | 17.78° C | 60% | 1005.9 hPa | 0 mm | - | 255 W/m² | - |
| 1778052659 | 17.78° C | 59% | 1005.7 hPa | 0 mm | - | 383 W/m² | - |
| 1778052058 | 17.78° C | 59% | 1005.7 hPa | 0 mm | - | 451 W/m² | - |
| 1778051759 | 17.78° C | 60% | 1005.7 hPa | 0 mm | - | 441 W/m² | - |
| 1778051459 | 17.78° C | 60% | 1005.6 hPa | 0 mm | - | 424 W/m² | - |
* Rain latest hour (hover to see other rain measurements)
** Current wind speed in m/s (hover to see current wind gust speed)